When you browse on this site, cookies collect data to enhance your experience and personalize the content and advertising you see.
Visit our Privacy Policy to learn more. By continuing to use the site, you agree to this use of cookies and data.
  • In Germany
  • List of Countries
  • For 7 days
  • Water Temperature
  • Satellite Maps
  • Weather Map
  • Weather Widgets
  • user-avatar
    Login

    Hourly Weather Igls

    Today, 19 November, Monday

    Time Temperature Precipitation Wind Pressure Humidity
    00:00 0°C° 0.1 mm 1 mps 681 mmHg 86%
    01:00 0°C° 0 mm 1 mps 681 mmHg 88%
    02:00 0°C° 0.2 mm 1 mps 680 mmHg 88%
    03:00 0°C° 0.2 mm 1 mps 680 mmHg 88%
    04:00 0°C° 0.2 mm 1 mps 679 mmHg 89%
    05:00 0°C° 0.3 mm 1 mps 679 mmHg 89%
    06:00 0°C° 0.3 mm 1 mps 679 mmHg 89%
    07:00 -2°C° 0 mm 2 mps 678 mmHg 90%
    08:00 -2°C° 0.2 mm 2 mps 678 mmHg 86%
    09:00 -1°C° 0.2 mm 2 mps 678 mmHg 82%
    10:00 -1°C° 0.2 mm 2 mps 678 mmHg 78%
    11:00 +1°C° 0.1 mm 2 mps 677 mmHg 74%
    12:00 +1°C° 0.1 mm 2 mps 677 mmHg 70%
    13:00 0°C° 0 mm 3 mps 677 mmHg 68%
    14:00 0°C° 0.1 mm 3 mps 677 mmHg 70%
    15:00 +1°C° 0.1 mm 2 mps 677 mmHg 73%
    16:00 -1°C° 0.1 mm 2 mps 676 mmHg 75%
    17:00 -2°C° 0 mm 2 mps 676 mmHg 78%
    18:00 -2°C° 0 mm 2 mps 676 mmHg 81%
    19:00 -3°C° 0 mm 2 mps 676 mmHg 84%
    20:00 -3°C° 0 mm 2 mps 676 mmHg 83%
    21:00 -3°C° 0 mm 2 mps 676 mmHg 82%
    22:00 -3°C° 0 mm 2 mps 676 mmHg 80%
    23:00 -3°C° 0 mm 2 mps 675 mmHg 78%

    Tomorrow, 20 November, Tuesday

    Time Temperature Precipitation Wind Pressure Humidity
    00:00 -3°C° 0 mm 2 mps 675 mmHg 77%
    01:00 -2°C° 0 mm 2 mps 675 mmHg 75%
    02:00 -2°C° 0.1 mm 2 mps 675 mmHg 75%
    03:00 -2°C° 0.1 mm 2 mps 674 mmHg 76%
    04:00 -1°C° 0.1 mm 2 mps 674 mmHg 77%
    05:00 -1°C° 0.2 mm 2 mps 674 mmHg 77%
    06:00 -1°C° 0.2 mm 2 mps 674 mmHg 78%
    07:00 +1°C° 0.2 mm 2 mps 674 mmHg 79%
    08:00 +2°C° 0 mm 2 mps 674 mmHg 76%
    09:00 +3°C° 0 mm 2 mps 674 mmHg 72%
    10:00 +4°C° 0 mm 2 mps 675 mmHg 68%
    11:00 +5°C° 0 mm 2 mps 675 mmHg 66%
    12:00 +6°C° 0 mm 2 mps 675 mmHg 64%
    13:00 +7°C° 0 mm 2 mps 675 mmHg 61%
    14:00 +6°C° 0 mm 2 mps 675 mmHg 68%
    15:00 +4°C° 0 mm 2 mps 675 mmHg 75%
    16:00 +4°C° 0 mm 1 mps 675 mmHg 81%
    17:00 +2°C° 0 mm 2 mps 676 mmHg 83%
    18:00 +1°C° 0 mm 2 mps 676 mmHg 86%
    19:00 +1°C° 0 mm 2 mps 677 mmHg 88%
    20:00 +1°C° 0 mm 2 mps 677 mmHg 87%
    21:00 +1°C° 0 mm 2 mps 677 mmHg 86%
    22:00 +1°C° 0 mm 2 mps 678 mmHg 84%
    23:00 +1°C° 0 mm 2 mps 678 mmHg 83%

    Day after tomorrow, 21 November, Wednesday

    Time Temperature Precipitation Wind Pressure Humidity
    00:00 +1°C° 0 mm 2 mps 678 mmHg 81%
    01:00 +1°C° 0 mm 2 mps 678 mmHg 80%
    02:00 +1°C° 0 mm 2 mps 678 mmHg 78%
    03:00 +1°C° 0 mm 2 mps 678 mmHg 77%
    04:00 +1°C° 0 mm 2 mps 678 mmHg 76%
    05:00 +1°C° 0 mm 2 mps 679 mmHg 75%
    06:00 +1°C° 0 mm 2 mps 679 mmHg 74%
    07:00 +1°C° 0 mm 2 mps 679 mmHg 73%
    08:00 +3°C° 0 mm 2 mps 679 mmHg 68%
    09:00 +5°C° 0 mm 2 mps 680 mmHg 63%
    10:00 +8°C° 0 mm 1 mps 680 mmHg 59%
    11:00 +9°C° 0 mm 1 mps 680 mmHg 57%
    12:00 +9°C° 0 mm 2 mps 680 mmHg 56%
    13:00 +10°C° 0 mm 2 mps 680 mmHg 55%
    14:00 +9°C° 0 mm 1 mps 680 mmHg 63%
    15:00 +7°C° 0 mm 1 mps 680 mmHg 70%
    16:00 +6°C° 0 mm 1 mps 680 mmHg 78%
    17:00 +5°C° 0 mm 1 mps 681 mmHg 80%
    18:00 +4°C° 0 mm 1 mps 681 mmHg 81%
    19:00 +3°C° 0 mm 1 mps 681 mmHg 82%
    20:00 +3°C° 0 mm 1 mps 682 mmHg 81%
    21:00 +3°C° 0 mm 1 mps 682 mmHg 79%
    22:00 +2°C° 0 mm 2 mps 682 mmHg 78%
    23:00 +2°C° 0 mm 2 mps 682 mmHg 78%

    22 November, Thursday

    Time Temperature Precipitation Wind Pressure Humidity
    00:00 +2°C° 0 mm 2 mps 683 mmHg 78%
    01:00 +3°C° 0 mm 1 mps 683 mmHg 79%
    02:00 +3°C° 0 mm 1 mps 683 mmHg 79%
    03:00 +3°C° 0 mm 1 mps 683 mmHg 80%
    04:00 +3°C° 0 mm 1 mps 683 mmHg 80%
    05:00 +3°C° 0 mm 1 mps 683 mmHg 80%
    06:00 +3°C° 0 mm 1 mps 683 mmHg 81%
    07:00 +3°C° 0 mm 1 mps 683 mmHg 81%
    08:00 +4°C° 0 mm 1 mps 684 mmHg 77%
    09:00 +6°C° 0 mm 1 mps 684 mmHg 72%
    10:00 +6°C° 0 mm 0 mps 685 mmHg 68%
    11:00 +8°C° 0 mm 1 mps 685 mmHg 67%
    12:00 +8°C° 0 mm 1 mps 685 mmHg 66%
    13:00 +9°C° 0 mm 1 mps 685 mmHg 65%
    14:00 +8°C° 0.1 mm 1 mps 685 mmHg 72%
    15:00 +6°C° 0.1 mm 0 mps 685 mmHg 79%
    16:00 +5°C° 0.1 mm 0 mps 685 mmHg 86%
    17:00 +4°C° 0.1 mm 0 mps 685 mmHg 87%
    18:00 +4°C° 0.1 mm 0 mps 685 mmHg 89%
    19:00 +3°C° 0.1 mm 0 mps 686 mmHg 90%
    20:00 +4°C° 0.1 mm 1 mps 686 mmHg 90%
    21:00 +4°C° 0.1 mm 1 mps 686 mmHg 89%
    22:00 +4°C° 0.1 mm 1 mps 687 mmHg 89%
    23:00 +4°C° 0 mm 1 mps 687 mmHg 89%

    23 November, Friday

    Time Temperature Precipitation Wind Pressure Humidity
    00:00 +4°C° 0 mm 1 mps 687 mmHg 88%
    01:00 +4°C° 0 mm 1 mps 687 mmHg 88%
    02:00 +3°C° 0 mm 1 mps 687 mmHg 88%
    03:00 +3°C° 0 mm 1 mps 687 mmHg 87%
    04:00 +3°C° 0 mm 1 mps 687 mmHg 87%
    05:00 +3°C° 0 mm 1 mps 687 mmHg 86%
    06:00 +3°C° 0 mm 1 mps 687 mmHg 86%
    07:00 +3°C° 0 mm 1 mps 688 mmHg 85%
    08:00 +4°C° 0 mm 1 mps 688 mmHg 80%
    09:00 +6°C° 0 mm 1 mps 688 mmHg 75%
    10:00 +8°C° 0 mm 1 mps 688 mmHg 70%
    11:00 +9°C° 0 mm 1 mps 688 mmHg 67%
    12:00 +9°C° 0 mm 1 mps 688 mmHg 64%
    13:00 +10°C° 0 mm 1 mps 688 mmHg 61%
    14:00 +9°C° 0 mm 1 mps 687 mmHg 67%
    15:00 +8°C° 0 mm 1 mps 687 mmHg 73%
    16:00 +6°C° 0 mm 1 mps 687 mmHg 79%
    17:00 +5°C° 0 mm 2 mps 687 mmHg 80%
    18:00 +4°C° 0 mm 2 mps 687 mmHg 82%
    19:00 +3°C° 0 mm 2 mps 687 mmHg 83%
    20:00 +2°C° 0 mm 3 mps 686 mmHg 82%
    21:00 +2°C° 0 mm 3 mps 686 mmHg 82%
    22:00 +2°C° 0 mm 3 mps 686 mmHg 81%
    23:00 +3°C° 0 mm 3 mps 685 mmHg 82%

    24 November, Saturday

    Time Temperature Precipitation Wind Pressure Humidity
    00:00 +3°C° 0 mm 3 mps 685 mmHg 83%
    01:00 +3°C° 0 mm 3 mps 685 mmHg 83%
    02:00 +3°C° 0 mm 3 mps 684 mmHg 84%
    03:00 +4°C° 0 mm 3 mps 684 mmHg 84%
    04:00 +4°C° 0 mm 3 mps 683 mmHg 84%
    05:00 +4°C° 0.1 mm 3 mps 683 mmHg 84%
    06:00 +4°C° 0.1 mm 3 mps 683 mmHg 85%
    07:00 +4°C° 0.1 mm 3 mps 682 mmHg 85%
    08:00 +5°C° 0.2 mm 3 mps 682 mmHg 84%
    09:00 +7°C° 0.2 mm 3 mps 681 mmHg 82%
    10:00 +7°C° 0.2 mm 3 mps 681 mmHg 81%
    11:00 +8°C° 0.1 mm 3 mps 681 mmHg 79%
    12:00 +9°C° 0.1 mm 3 mps 680 mmHg 78%
    13:00 +10°C° 0.1 mm 3 mps 680 mmHg 76%
    14:00 +9°C° 0.8 mm 3 mps 680 mmHg 81%
    15:00 +8°C° 0.8 mm 2 mps 680 mmHg 87%
    16:00 +7°C° 0.8 mm 2 mps 680 mmHg 92%
    17:00 +6°C° 1.7 mm 2 mps 680 mmHg 93%
    18:00 +7°C° 1.7 mm 1 mps 681 mmHg 95%
    19:00 +6°C° 1.7 mm 1 mps 681 mmHg 96%
    20:00 +6°C° 0.6 mm 1 mps 681 mmHg 95%
    21:00 +6°C° 0.6 mm 1 mps 681 mmHg 95%
    22:00 +5°C° 0.6 mm 2 mps 682 mmHg 95%
    23:00 +5°C° 0.2 mm 1 mps 682 mmHg 94%
    Show more